TimeEST,TemperatureF,Dew PointF,Humidity,Sea Level PressureIn,VisibilityMPH,Wind Direction,Wind SpeedMPH,Gust SpeedMPH,PrecipitationIn,Events,Conditions,WindDirDegrees,DateUTC
12:54 AM,39.0,21.9,50,30.43,10.0,North,9.2,-,N/A,,Clear,10,2012-11-17 05:54:00
1:54 AM,37.9,23.0,55,30.45,10.0,North,5.8,-,N/A,,Clear,350,2012-11-17 06:54:00
2:54 AM,37.0,24.1,59,30.46,10.0,North,6.9,-,N/A,,Clear,360,2012-11-17 07:54:00
3:54 AM,37.0,26.1,65,30.48,10.0,North,9.2,-,N/A,,Clear,10,2012-11-17 08:54:00
4:54 AM,36.0,26.1,67,30.51,10.0,North,8.1,-,N/A,,Clear,360,2012-11-17 09:54:00
5:54 AM,37.0,27.0,67,30.53,10.0,North,8.1,-,N/A,,Clear,360,2012-11-17 10:54:00
6:54 AM,36.0,27.0,70,30.56,10.0,North,8.1,-,N/A,,Clear,350,2012-11-17 11:54:00
7:54 AM,37.0,27.0,67,30.58,10.0,North,8.1,-,N/A,,Clear,360,2012-11-17 12:54:00
8:54 AM,39.9,26.1,58,30.60,10.0,NNE,8.1,-,N/A,,Clear,20,2012-11-17 13:54:00
9:54 AM,41.0,26.1,55,30.61,10.0,NNE,6.9,-,N/A,,Clear,30,2012-11-17 14:54:00
10:54 AM,43.0,27.0,53,30.61,10.0,Calm,Calm,-,N/A,,Clear,0,2012-11-17 15:54:00
11:54 AM,44.1,27.0,51,30.59,10.0,NE,6.9,-,N/A,,Clear,40,2012-11-17 16:54:00
12:54 PM,46.0,27.0,47,30.58,10.0,Variable,3.5,-,N/A,,Clear,0,2012-11-17 17:54:00
1:54 PM,46.9,25.0,42,30.58,10.0,North,3.5,-,N/A,,Clear,10,2012-11-17 18:54:00
2:54 PM,46.9,23.0,39,30.58,10.0,Calm,Calm,-,N/A,,Clear,0,2012-11-17 19:54:00
3:54 PM,44.6,26.6,49,30.56,10.0,Calm,Calm,-,N/A,,Clear,0,2012-11-17 20:54:00
4:54 PM,43.0,26.1,51,30.61,10.0,Calm,Calm,-,N/A,,Clear,0,2012-11-17 21:54:00
5:54 PM,42.1,25.0,51,30.63,10.0,Calm,Calm,-,N/A,,Clear,0,2012-11-17 22:54:00
6:54 PM,37.4,24.8,60,30.60,10.0,Calm,Calm,-,N/A,,Clear,0,2012-11-17 23:54:00
7:54 PM,39.0,25.0,57,30.63,10.0,North,3.5,-,N/A,,Clear,10,2012-11-18 00:54:00
8:54 PM,37.9,27.0,65,30.65,10.0,Calm,Calm,-,N/A,,Clear,0,2012-11-18 01:54:00
9:54 PM,36.0,28.0,73,30.66,10.0,Calm,Calm,-,N/A,,Clear,0,2012-11-18 02:54:00
10:54 PM,34.0,28.0,79,30.66,10.0,Calm,Calm,-,N/A,,Clear,0,2012-11-18 03:54:00
11:54 PM,32.0,28.0,85,30.66,10.0,West,3.5,-,N/A,,Clear,280,2012-11-18 04:54:00